Location: Bellflower
(33.8817°N, 118.1170°W)
Time: 13:24:14
(UTC+00:00)

Lacrosse 5 - Pass Details

Date: 23 November 2020
Orbit: 713 x 726 km, 57.0° (Epoch: 18 January)

Event Time Altitude Azimuth Distance (km) Brightness Sun altitude
Rises 12:49:18 0° 200° (SSW) 3,097 5.1 -21.3°
Reaches altitude 10° 12:51:45 10° 194° (SSW) 2,180 4.3 -20.8°
Maximum altitude 12:56:29 43° 123° (ESE) 991 3.0 -19.8°
Drops below altitude 10° 13:01:14 10° 53° (NE) 2,189 4.9 -18.8°
Sets 13:03:42 0° 47° (NE) 3,112 5.6 -18.3°
